Location: *
(37.5724°S, 58.0067°E)
Time: 10:24:37
(UTC+00:00)

ARGOS - Pass Details

Date: 26 September 2020
Orbit: 821 x 834 km, 98.4° (Epoch: 29 October)

Event Time Altitude Azimuth Distance (km) Brightness Sun altitude
Rises 16:19:07 0° 167° (SSE) 3,394 6.5 -25.9°
Reaches altitude 10° 16:21:30 10° 166° (SSE) 2,452 5.7 -26.4°
Enters shadow 16:26:40 80° 136° (SE) 847 3.0 -27.3°
